This demonstration page uses our WeatherBlox Daily Observations layout. Learn more.

Left ArrowRight Arrow

Hourly Observations for January 6, 2018

Temp ( °F °C ) Dew Point ( °F °C ) Humidity (%) Winds ( mph kmh ) Pressure ( in mb ) Visibility ( mi km ) Precip ( " mm )
12:53 am 00:53 Clear 8 -13.3 4 -15.6 83 83 ESE 9 15 30.51 1033 8 13 0.00 0.00
1:53 am 01:53 Clear 8 -13.3 4 -15.6 83 83 ESE 12 19 30.49 1033 8 13 0.00 0.00
2:53 am 02:53 Clear 7 -13.9 4 -15.6 87 87 ESE 10 17 30.50 1033 9 14 0.00 0.00
3:53 am 03:53 Clear 7 -13.9 3 -16.1 84 84 SE 12 19 30.50 1033 9 14 0.00 0.00
4:53 am 04:53 Partly Cloudy 6 -14.4 3 -16.1 87 87 SE 7 11 30.50 1033 9 14 0.00 0.00
5:53 am 05:53 Mostly Clear 5 -15 2 -16.7 87 87 SE 10 17 30.48 1032 8 13 0.00 0.00
6:53 am 06:53 Clear 4 -15.6 1 -17.2 88 88 SSE 7 11 30.47 1032 8 13 0.00 0.00
7:53 am 07:53 Clear 4 -15.6 0 -17.8 83 83 SSE 6 9 30.48 1032 8 13 0.00 0.00
8:53 am 08:53 Sunny 5 -15 1 -17.2 83 83 SSE 9 15 30.48 1032 7 11 0.00 0.00
9:53 am 09:53 Sunny 8 -13.3 3 -16.1 80 80 SSE 9 15 30.45 1031 8 13 0.00 0.00
10:53 am 10:53 Sunny 11 -11.7 6 -14.4 81 81 S 10 17 30.44 1031 9 14 0.00 0.00
11:53 am 11:53 Sunny 17 -8.3 9 -12.8 70 70 S 13 20 30.40 1029 10 16 0.00 0.00
12:53 pm 12:53 Sunny 18 -7.8 11 -11.7 74 74 S 12 19 30.33 1027 10 16 0.00 0.00
1:53 pm 13:53 Sunny 22 -5.6 13 -10.6 68 68 S 13 20 30.26 1025 10 16 0.00 0.00
2:53 pm 14:53 Sunny 24 -4.4 14 -10 65 65 S 8 13 30.23 1024 10 16 0.00 0.00
3:53 pm 15:53 Sunny 24 -4.4 14 -10 65 65 SSE 13 20 30.19 1023 10 16 0.00 0.00
4:53 pm 16:53 Sunny 24 -4.4 14 -10 65 65 S 6 9 30.19 1022 10 16 0.00 0.00
5:53 pm 17:53 Clear 24 -4.4 15 -9.4 68 68 S 7 11 30.17 1022 10 16 0.00 0.00
6:53 pm 18:53 Clear 25 -3.9 15 -9.4 66 66 S 10 17 30.14 1021 10 16 0.00 0.00
7:53 pm 19:53 Clear 24 -4.4 14 -10 65 65 S 10 17 30.11 1020 10 16 0.00 0.00
8:53 pm 20:53 Clear 24 -4.4 15 -9.4 68 68 S 9 15 30.09 1019 10 16 0.00 0.00
9:53 pm 21:53 Clear 25 -3.9 15 -9.4 66 66 S 7 11 30.07 1018 10 16 0.00 0.00
10:53 pm 22:53 Clear 25 -3.9 16 -8.9 69 69 S 9 15 30.05 1018 10 16 0.00 0.00
11:53 pm 23:53 Clear 26 -3.3 17 -8.3 69 69 S 8 13 30.01 1016 10 16 0.00 0.00

Powered by AerisWeather